SCP
0 0 0 0 0 0 0 0 0 0 0 0 0 0 0 0 0 0 0 0 0 0 0 0 0 0 0 0 0 0 0 0 0 0 0 0 0 0 0 0 0 0 0
0 0 0 0 0 0 0 0 0 0 0 0 0 0 0 0 0 0 0 0 0 0 0 0 0 0 0 0 0 0 0 0 0 0 0 0 0 0 0 0 0 0 0
0 0 0 0 0 0 0 0 0 0 0 0 0 0 0 0 0 0 0 0 0 0 0 0 0 0 0 0 0 0 0 0 0 0 0 0 0 0 0 0 0 0 0
0 0 0 0 0 0 0 0 0 0 0 0 0 0 0 0 0 0 0 0 -0 0 0 0 0 0 0 0 0 0 0 0 0 0 0 0 0 0 0 0 0 0 0
0 0 0 0 0 0 0 0 0 0 0 0 0 0 0 0 -0 0 0 0 0 0 -0 0 0 0 0 0 0 0 0 0 0 0 0 0 0 0 0 0 0 0 0
0 0 0 0 0 0 0 0 0 0 0 0 0 0 0 0 0 -0 0 0 0 0 0 0 0 0 0 0 0 0 0 0 0 0 0 0 0 0 0 0 0 0 0
0 0 0 0 0 0 0 0 0 0 0 0 0 0 0 -0 -0 0 0 -0 0 0 0 0 0 0 0 0 0 0 0 0 0 0 0 0 0 0 0 0 0 0 0
0 0 0 0 0 0 0 0 0 0 0 0 0 0 0 0 -0 -0 0 -0 -0 -0 0 0 0 0 0 0 0 0 0 0 0 0 0 0 0 0 0 0 0 0 0
0 0 0 0 0 0 0 0 0 0 0 0 0 0 0 0 0 0 -0 -0 0 0 0 0 0 0 0 0 0 0 0 0 0 0 0 0 0 0 0 0 0 0 0
0 0 0 0 0 0 0 0 0 0 0 0 0 0 0 0 0 0 0 0 -0 0 0 0 0 0 0 0 0 0 0 0 0 0 0 0 0 0 0 0 0 0 0
0 0 0 0 0 0 0 0 0 0 0 0 0 0 0 0 0 0 0 0 0 0 0 0 0 0 0 0 0 0 0 0 0 0 0 0 0 0 0 0 0 1 0
0 0 0 0 0 0 0 0 0 0 0 0 0 0 0 0 0 0 0 0 0 0 0 0 0 0 0 0 0 0 0 0 0 0 0 0 0 0 0 0 0 0 0
0 0 0 0 0 0 0 0 0 0 0 0 0 0 0 0 0 0 0 0 0 0 0 0 0 0 0 0 0 0 0 0 0 0 0 0 0 0 0 0 0 0 0
0 0 0 0 0 0 0 0 0 0 0 0 0 0 0 0 0 0 0 0 0 0 0 0 0 0 0 0 0 0 0 0 0 0 0 0 0 0 0 0 0 0 0
0 0 0 0 0 0 0 0 0 0 0 0 0 0 0 0 0 0 0 0 0 0 0 0 0 0 0 0 0 0 0 0 0 0 0 0 0 0 0 0 0 0 0
0 0 0 0 0 0 0 0 0 0 0 0 0 0 0 0 0 -0 0 0 0 0 0 0 0 0 0 0 0 0 0 0 0 0 0 0 0 0 0 0 0 0 0
0 0 0 0 0 0 0 0 0 0 0 0 0 0 0 0 0 0 -0 -0 0 0 0 0 0 0 0 0 0 0 0 0 0 0 0 0 0 0 0 0 0 0 0
0 0 0 0 0 0 0 0 0 0 0 0 0 0 0 0 0 0 0 0 0 0 0 0 0 0 0 0 0 0 0 0 0 0 0 0 0 0 0 0 0 0 0
0 0 0 0 0 0 0 0 0 0 -0 0 0 0 0 0 0 0 0 0 0 0 0 0 0 0 0 0 0 0 0 0 0 0 0 0 0 0 0 0 0 0 0
0 0 0 0 0 0 0 0 0 0 -0 0 0 0 0 0 0 0 0 0 0 0 0 0 0 0 0 0 0 0 0 0 0 0 0 0 0 0 0 0 0 0 0
0 0 0 0 0 0 0 0 0 -0 0 0 0 0 0 0 0 0 0 0 0 0 0 0 0 0 0 0 0 0 0 0 0 0 0 0 0 0 0 0 0 0 0
0 0 0 0 0 0 -0 -0 0 0 0 0 0 0 0 0 0 0 0 0 0 0 0 0 0 0 0 0 0 0 0 0 0 0 0 0 0 0 0 0 0 0 0
0 0 0 0 0 0 0 -0 0 0 0 0 0 0 0 0 0 0 0 0 0 0 0 0 0 0 0 0 0 0 0 0 0 0 0 0 0 0 0 0 0 0 -0
0 0 0 0 0 0 0 -0 0 0 0 0 0 0 0 0 0 0 0 0 0 0 0 0 0 0 0 0 0 0 0 0 0 0 0 0 0 0 0 0 0 0 0
0 0 0 0 0 0 0 -0 0 0 0 0 0 0 0 0 0 0 0 0 0 0 0 0 0 0 0 0 0 0 0 0 0 0 0 0 0 0 0 0 0 0 0
0 0 0 0 0 0 0 -0 0 0 0 0 0 0 0 0 0 0 0 0 0 0 0 0 0 0 0 0 0 0 0 0 0 0 0 0 0 0 0 0 0 0 0
Wind_Speed_500mb
22 19 18 13 11 7 9 11 10 11 8 5 11 13 5 5 5 6 8 17 22 25 21 11 9 9 10 12 13 17 19 19 19 19 17 19 21 23 24 23 21 20 20
30 28 30 28 25 20 8 3 4 15 16 8 16 19 14 2 4 3 9 10 14 21 25 26 16 11 13 17 19 20 19 16 18 19 20 20 21 22 25 25 25 25 22
30 33 28 25 14 9 3 3 0 7 4 9 5 9 5 8 12 5 7 10 12 16 20 24 18 17 17 16 17 17 18 20 22 23 23 23 23 23 26 28 27 29 26
34 30 27 19 12 9 4 2 7 4 13 10 10 9 2 11 5 12 4 9 16 16 18 24 10 13 17 18 19 19 19 19 17 22 23 22 21 23 25 29 29 30 31
41 31 27 19 15 10 5 1 5 5 18 9 5 3 3 4 4 10 11 15 15 13 24 12 8 11 14 20 22 25 22 21 19 22 21 24 23 24 23 25 27 30 32
37 38 27 20 17 10 8 6 9 11 17 13 16 9 13 14 11 18 17 20 10 11 20 19 20 13 13 18 25 31 23 21 20 21 19 21 21 25 25 26 25 27 30
42 39 27 27 18 10 8 7 9 18 9 14 11 4 1 6 7 8 19 28 18 12 21 17 21 15 13 16 26 24 29 27 26 23 21 17 22 26 29 31 29 29 31
44 39 32 29 18 13 8 8 9 13 15 5 8 6 7 7 3 3 12 28 27 32 32 26 22 17 22 26 28 31 29 28 27 27 21 22 24 33 33 36 36 33 32
45 43 36 31 23 19 15 9 10 7 5 12 10 7 6 5 5 4 9 22 16 25 29 37 29 28 31 31 30 33 38 41 34 28 26 24 28 33 35 39 41 41 38
45 45 38 31 29 24 19 13 12 10 7 5 8 15 18 13 5 7 5 15 22 20 24 34 29 31 43 44 34 36 44 53 51 40 36 34 33 33 36 37 44 44 40
47 48 41 36 32 27 22 15 12 13 11 7 4 9 9 8 6 4 3 10 5 13 20 27 31 39 38 44 42 47 54 63 59 49 42 41 37 36 37 34 38 48 46
50 54 47 41 38 30 26 21 16 15 11 8 9 7 7 8 4 5 5 12 17 2 14 13 27 29 29 35 37 45 57 66 52 48 47 42 37 36 37 40 39 40 45
58 59 54 51 45 36 30 25 21 18 13 11 6 5 5 1 4 6 7 10 15 2 14 10 19 14 14 22 36 52 63 55 54 49 40 35 38 39 41 40 40 39 34
55 61 61 57 51 44 34 31 25 21 18 14 10 7 4 3 3 6 7 8 14 12 8 10 15 20 29 43 52 51 43 47 54 54 39 36 42 50 52 47 39 35 30
56 40 76 71 63 52 42 35 28 25 21 20 14 11 7 5 5 5 6 9 11 12 25 15 23 36 37 40 35 40 48 51 51 54 53 43 43 44 50 47 38 32 28
81 88 84 83 69 60 50 41 37 30 26 25 20 13 8 5 9 15 15 12 13 17 21 35 34 35 36 33 30 36 43 49 48 53 60 55 52 54 53 47 43 29 25
81 81 75 83 77 67 57 50 43 35 31 29 22 17 13 6 2 14 20 19 17 22 35 35 33 35 39 32 37 30 30 36 46 52 62 57 56 59 59 53 40 22 21
78 81 82 80 81 73 66 58 50 42 35 35 29 25 20 15 7 9 20 24 24 22 30 41 39 39 37 37 35 37 32 39 48 59 49 41 38 45 52 45 37 19 17
80 92 82 81 82 82 71 62 55 46 38 37 37 33 28 22 15 12 17 23 31 32 30 38 44 40 39 31 37 35 43 52 50 45 39 37 43 49 42 41 27 13 17
84 102 86 80 79 78 63 58 55 53 46 46 43 41 36 28 22 16 21 24 32 34 33 35 39 40 39 37 40 47 43 43 48 43 40 35 42 48 36 34 16 11 13
104 100 90 86 80 79 63 72 71 62 58 56 49 47 42 35 27 20 23 25 35 37 35 38 40 43 42 43 44 48 48 53 49 44 42 36 33 43 32 25 16 3 15
87 88 87 87 88 87 93 91 80 69 64 60 57 52 47 40 30 25 24 29 39 39 42 46 46 47 48 45 47 49 50 55 60 47 46 32 34 40 35 25 16 5 28
90 97 103 95 102 94 92 78 71 68 64 63 61 56 50 41 33 29 24 30 38 36 39 46 51 48 50 46 47 49 48 52 53 51 35 39 35 42 41 21 19 1 37
63 95 99 100 103 97 89 71 67 69 61 62 62 56 53 42 36 30 28 33 36 38 40 45 50 50 49 45 46 49 54 54 52 42 26 38 33 42 39 19 11 4 22
53 70 85 95 103 99 89 72 61 63 62 62 60 60 56 46 38 34 34 36 36 41 44 51 54 55 51 52 54 56 51 46 45 34 25 22 27 40 36 26 5 8 21
45 64 73 83 93 89 83 70 67 65 66 67 68 64 53 44 40 38 37 41 44 47 52 54 52 50 48 46 41 42 34 32 33 44 26 33 25 36 21 16 4 6 20
Wind_Direction_500mb
189 208 177 158 161 219 234 259 329 21 80 72 341 353 180 204 270 347 3 357 358 20 21 343 334 328 317 308 298 301 303 305 299 296 297 305 312 313 312 310 312 312 311
217 208 214 236 240 243 246 246 69 63 69 53 23 51 91 117 246 76 67 36 15 23 26 27 16 344 320 309 305 300 296 300 301 298 292 294 299 303 305 304 305 305 305
205 215 229 222 211 203 208 22 348 80 73 87 47 96 122 339 147 77 346 353 353 14 11 17 27 31 24 15 355 332 310 303 299 295 290 291 294 302 305 302 300 302 301
209 229 213 201 193 192 188 198 131 167 122 96 125 124 121 83 20 1 332 338 356 335 352 350 358 10 4 0 354 336 325 315 310 286 293 303 292 303 307 306 302 296 298
223 221 203 190 188 195 193 258 84 149 148 117 97 94 113 116 51 53 51 8 16 48 8 2 5 1 2 355 359 350 331 312 304 309 281 282 295 300 306 307 303 298 294
215 201 194 190 198 182 148 141 122 83 151 131 149 8 55 55 59 43 15 16 55 37 356 19 353 344 344 347 353 352 346 333 314 309 298 288 292 293 303 310 313 311 295
192 198 187 192 198 168 160 182 124 83 108 172 162 165 357 69 35 41 21 32 38 16 0 13 10 349 341 340 353 353 350 346 338 322 327 290 293 292 292 292 294 301 305
192 197 189 194 187 172 150 152 137 97 77 124 213 200 252 246 241 14 17 32 25 23 12 17 8 32 17 337 346 355 352 346 335 330 319 315 301 285 284 289 286 286 292
197 200 192 196 183 174 162 148 140 115 71 62 58 197 165 162 204 221 42 29 10 5 0 3 5 357 6 351 352 356 356 351 342 325 311 295 288 284 286 287 284 283 282
204 204 201 196 190 184 173 164 165 160 145 100 84 81 82 82 138 140 123 28 18 351 339 352 359 0 3 358 352 356 348 347 343 331 315 302 292 289 281 289 280 280 283
207 206 206 198 200 189 183 173 174 184 176 176 193 112 114 115 66 105 258 320 290 353 336 336 346 357 357 349 347 344 342 340 335 332 324 317 310 297 291 281 281 279 280
213 209 209 205 208 203 191 180 187 190 195 183 196 165 168 188 253 206 289 287 317 202 344 313 355 3 355 339 334 331 330 330 335 331 332 333 325 315 297 289 284 277 261
226 217 213 210 213 208 200 191 192 197 183 182 164 151 153 212 266 255 281 303 324 243 21 47 23 3 340 321 324 322 324 334 346 348 334 333 331 327 320 305 289 287 285
232 231 223 217 214 214 206 201 198 198 190 175 174 172 174 83 309 322 315 319 340 337 268 299 329 325 315 313 314 318 330 350 351 350 334 332 334 331 327 317 300 286 277
212 212 232 221 214 214 210 207 205 203 194 181 175 149 152 79 8 35 350 318 315 322 317 296 282 309 307 311 329 340 342 345 343 342 345 330 329 326 325 325 310 288 271
207 212 220 221 214 212 211 210 211 208 201 195 190 168 164 111 50 34 15 339 305 292 296 303 314 319 324 335 339 338 338 337 329 339 336 327 324 321 321 321 313 289 272
204 216 225 222 216 213 209 212 213 211 206 204 210 203 213 228 14 25 15 9 343 320 302 316 323 330 329 335 332 333 325 306 323 330 325 314 310 312 313 320 316 288 277
219 220 219 219 218 215 211 211 213 214 214 214 213 216 223 244 288 347 357 358 346 323 306 313 326 326 327 330 322 322 315 308 314 321 324 325 337 329 325 320 319 296 279
218 216 218 216 214 214 210 212 216 218 219 219 219 220 226 236 257 309 334 341 344 334 314 309 316 321 324 322 313 307 306 306 312 321 325 331 334 328 329 332 322 298 255
215 216 214 213 210 212 211 215 220 219 228 226 223 224 229 237 254 296 314 327 333 329 319 317 315 321 324 325 315 314 327 323 324 327 319 327 325 330 331 345 334 290 228
213 212 215 215 209 206 207 229 228 225 226 227 223 226 232 237 252 279 310 318 324 325 321 319 320 322 328 329 328 330 331 325 329 335 327 332 330 335 337 351 353 347 206
217 220 222 219 214 211 211 224 225 218 221 225 225 224 230 235 247 275 297 319 320 325 323 322 321 323 327 328 325 324 326 323 326 335 325 348 344 338 341 346 353 208 206
220 216 220 225 221 223 223 233 227 228 225 227 228 229 231 235 247 266 292 308 314 319 318 318 318 320 317 321 315 318 317 315 318 326 317 327 342 335 329 348 3 146 206
227 225 225 228 229 230 232 236 230 230 227 228 227 233 237 237 249 267 284 298 311 319 318 315 314 313 313 317 315 311 309 310 313 315 304 317 334 325 321 350 6 141 198
228 235 237 232 229 229 236 230 231 233 230 231 234 237 236 236 245 260 275 292 302 311 310 310 312 311 308 308 305 301 302 301 314 335 352 300 320 317 315 322 350 134 193
245 242 238 237 241 235 234 239 231 235 233 230 233 236 238 241 250 262 279 297 304 310 308 307 307 307 305 301 299 296 298 297 308 307 316 321 314 317 306 338 15 208 215
Wind_Speed_850mb
22 19 18 13 11 7 9 11 10 11 8 5 11 13 5 5 5 6 8 17 22 25 21 11 9 9 10 12 13 17 19 19 19 19 17 19 21 23 24 23 21 20 20
30 28 30 28 25 20 8 3 4 15 16 8 16 19 14 2 4 3 9 10 14 21 25 26 16 11 13 17 19 20 19 16 18 19 20 20 21 22 25 25 25 25 22
30 33 28 25 14 9 3 3 0 7 4 9 5 9 5 8 12 5 7 10 12 16 20 24 18 17 17 16 17 17 18 20 22 23 23 23 23 23 26 28 27 29 26
34 30 27 19 12 9 4 2 7 4 13 10 10 9 2 11 5 12 4 9 16 16 18 24 10 13 17 18 19 19 19 19 17 22 23 22 21 23 25 29 29 30 31
41 31 27 19 15 10 5 1 5 5 18 9 5 3 3 4 4 10 11 15 15 13 24 12 8 11 14 20 22 25 22 21 19 22 21 24 23 24 23 25 27 30 32
37 38 27 20 17 10 8 6 9 11 17 13 16 9 13 14 11 18 17 20 10 11 20 19 20 13 13 18 25 31 23 21 20 21 19 21 21 25 25 26 25 27 30
42 39 27 27 18 10 8 7 9 18 9 14 11 4 1 6 7 8 19 28 18 12 21 17 21 15 13 16 26 24 29 27 26 23 21 17 22 26 29 31 29 29 31
44 39 32 29 18 13 8 8 9 13 15 5 8 6 7 7 3 3 12 28 27 32 32 26 22 17 22 26 28 31 29 28 27 27 21 22 24 33 33 36 36 33 32
45 43 36 31 23 19 15 9 10 7 5 12 10 7 6 5 5 4 9 22 16 25 29 37 29 28 31 31 30 33 38 41 34 28 26 24 28 33 35 39 41 41 38
45 45 38 31 29 24 19 13 12 10 7 5 8 15 18 13 5 7 5 15 22 20 24 34 29 31 43 44 34 36 44 53 51 40 36 34 33 33 36 37 44 44 40
47 48 41 36 32 27 22 15 12 13 11 7 4 9 9 8 6 4 3 10 5 13 20 27 31 39 38 44 42 47 54 63 59 49 42 41 37 36 37 34 38 48 46
50 54 47 41 38 30 26 21 16 15 11 8 9 7 7 8 4 5 5 12 17 2 14 13 27 29 29 35 37 45 57 66 52 48 47 42 37 36 37 40 39 40 45
58 59 54 51 45 36 30 25 21 18 13 11 6 5 5 1 4 6 7 10 15 2 14 10 19 14 14 22 36 52 63 55 54 49 40 35 38 39 41 40 40 39 34
55 61 61 57 51 44 34 31 25 21 18 14 10 7 4 3 3 6 7 8 14 12 8 10 15 20 29 43 52 51 43 47 54 54 39 36 42 50 52 47 39 35 30
56 40 76 71 63 52 42 35 28 25 21 20 14 11 7 5 5 5 6 9 11 12 25 15 23 36 37 40 35 40 48 51 51 54 53 43 43 44 50 47 38 32 28
81 88 84 83 69 60 50 41 37 30 26 25 20 13 8 5 9 15 15 12 13 17 21 35 34 35 36 33 30 36 43 49 48 53 60 55 52 54 53 47 43 29 25
81 81 75 83 77 67 57 50 43 35 31 29 22 17 13 6 2 14 20 19 17 22 35 35 33 35 39 32 37 30 30 36 46 52 62 57 56 59 59 53 40 22 21
78 81 82 80 81 73 66 58 50 42 35 35 29 25 20 15 7 9 20 24 24 22 30 41 39 39 37 37 35 37 32 39 48 59 49 41 38 45 52 45 37 19 17
80 92 82 81 82 82 71 62 55 46 38 37 37 33 28 22 15 12 17 23 31 32 30 38 44 40 39 31 37 35 43 52 50 45 39 37 43 49 42 41 27 13 17
84 102 86 80 79 78 63 58 55 53 46 46 43 41 36 28 22 16 21 24 32 34 33 35 39 40 39 37 40 47 43 43 48 43 40 35 42 48 36 34 16 11 13
104 100 90 86 80 79 63 72 71 62 58 56 49 47 42 35 27 20 23 25 35 37 35 38 40 43 42 43 44 48 48 53 49 44 42 36 33 43 32 25 16 3 15
87 88 87 87 88 87 93 91 80 69 64 60 57 52 47 40 30 25 24 29 39 39 42 46 46 47 48 45 47 49 50 55 60 47 46 32 34 40 35 25 16 5 28
90 97 103 95 102 94 92 78 71 68 64 63 61 56 50 41 33 29 24 30 38 36 39 46 51 48 50 46 47 49 48 52 53 51 35 39 35 42 41 21 19 1 37
63 95 99 100 103 97 89 71 67 69 61 62 62 56 53 42 36 30 28 33 36 38 40 45 50 50 49 45 46 49 54 54 52 42 26 38 33 42 39 19 11 4 22
53 70 85 95 103 99 89 72 61 63 62 62 60 60 56 46 38 34 34 36 36 41 44 51 54 55 51 52 54 56 51 46 45 34 25 22 27 40 36 26 5 8 21
45 64 73 83 93 89 83 70 67 65 66 67 68 64 53 44 40 38 37 41 44 47 52 54 52 50 48 46 41 42 34 32 33 44 26 33 25 36 21 16 4 6 20
Wind_Direction_850mb
189 208 177 158 161 219 234 259 329 21 80 72 341 353 180 204 270 347 3 357 358 20 21 343 334 328 317 308 298 301 303 305 299 296 297 305 312 313 312 310 312 312 311
217 208 214 236 240 243 246 246 69 63 69 53 23 51 91 117 246 76 67 36 15 23 26 27 16 344 320 309 305 300 296 300 301 298 292 294 299 303 305 304 305 305 305
205 215 229 222 211 203 208 22 348 80 73 87 47 96 122 339 147 77 346 353 353 14 11 17 27 31 24 15 355 332 310 303 299 295 290 291 294 302 305 302 300 302 301
209 229 213 201 193 192 188 198 131 167 122 96 125 124 121 83 20 1 332 338 356 335 352 350 358 10 4 0 354 336 325 315 310 286 293 303 292 303 307 306 302 296 298
223 221 203 190 188 195 193 258 84 149 148 117 97 94 113 116 51 53 51 8 16 48 8 2 5 1 2 355 359 350 331 312 304 309 281 282 295 300 306 307 303 298 294
215 201 194 190 198 182 148 141 122 83 151 131 149 8 55 55 59 43 15 16 55 37 356 19 353 344 344 347 353 352 346 333 314 309 298 288 292 293 303 310 313 311 295
192 198 187 192 198 168 160 182 124 83 108 172 162 165 357 69 35 41 21 32 38 16 0 13 10 349 341 340 353 353 350 346 338 322 327 290 293 292 292 292 294 301 305
192 197 189 194 187 172 150 152 137 97 77 124 213 200 252 246 241 14 17 32 25 23 12 17 8 32 17 337 346 355 352 346 335 330 319 315 301 285 284 289 286 286 292
197 200 192 196 183 174 162 148 140 115 71 62 58 197 165 162 204 221 42 29 10 5 0 3 5 357 6 351 352 356 356 351 342 325 311 295 288 284 286 287 284 283 282
204 204 201 196 190 184 173 164 165 160 145 100 84 81 82 82 138 140 123 28 18 351 339 352 359 0 3 358 352 356 348 347 343 331 315 302 292 289 281 289 280 280 283
207 206 206 198 200 189 183 173 174 184 176 176 193 112 114 115 66 105 258 320 290 353 336 336 346 357 357 349 347 344 342 340 335 332 324 317 310 297 291 281 281 279 280
213 209 209 205 208 203 191 180 187 190 195 183 196 165 168 188 253 206 289 287 317 202 344 313 355 3 355 339 334 331 330 330 335 331 332 333 325 315 297 289 284 277 261
226 217 213 210 213 208 200 191 192 197 183 182 164 151 153 212 266 255 281 303 324 243 21 47 23 3 340 321 324 322 324 334 346 348 334 333 331 327 320 305 289 287 285
232 231 223 217 214 214 206 201 198 198 190 175 174 172 174 83 309 322 315 319 340 337 268 299 329 325 315 313 314 318 330 350 351 350 334 332 334 331 327 317 300 286 277
212 212 232 221 214 214 210 207 205 203 194 181 175 149 152 79 8 35 350 318 315 322 317 296 282 309 307 311 329 340 342 345 343 342 345 330 329 326 325 325 310 288 271
207 212 220 221 214 212 211 210 211 208 201 195 190 168 164 111 50 34 15 339 305 292 296 303 314 319 324 335 339 338 338 337 329 339 336 327 324 321 321 321 313 289 272
204 216 225 222 216 213 209 212 213 211 206 204 210 203 213 228 14 25 15 9 343 320 302 316 323 330 329 335 332 333 325 306 323 330 325 314 310 312 313 320 316 288 277
219 220 219 219 218 215 211 211 213 214 214 214 213 216 223 244 288 347 357 358 346 323 306 313 326 326 327 330 322 322 315 308 314 321 324 325 337 329 325 320 319 296 279
218 216 218 216 214 214 210 212 216 218 219 219 219 220 226 236 257 309 334 341 344 334 314 309 316 321 324 322 313 307 306 306 312 321 325 331 334 328 329 332 322 298 255
215 216 214 213 210 212 211 215 220 219 228 226 223 224 229 237 254 296 314 327 333 329 319 317 315 321 324 325 315 314 327 323 324 327 319 327 325 330 331 345 334 290 228
213 212 215 215 209 206 207 229 228 225 226 227 223 226 232 237 252 279 310 318 324 325 321 319 320 322 328 329 328 330 331 325 329 335 327 332 330 335 337 351 353 347 206
217 220 222 219 214 211 211 224 225 218 221 225 225 224 230 235 247 275 297 319 320 325 323 322 321 323 327 328 325 324 326 323 326 335 325 348 344 338 341 346 353 208 206
220 216 220 225 221 223 223 233 227 228 225 227 228 229 231 235 247 266 292 308 314 319 318 318 318 320 317 321 315 318 317 315 318 326 317 327 342 335 329 348 3 146 206
227 225 225 228 229 230 232 236 230 230 227 228 227 233 237 237 249 267 284 298 311 319 318 315 314 313 313 317 315 311 309 310 313 315 304 317 334 325 321 350 6 141 198
228 235 237 232 229 229 236 230 231 233 230 231 234 237 236 236 245 260 275 292 302 311 310 310 312 311 308 308 305 301 302 301 314 335 352 300 320 317 315 322 350 134 193
245 242 238 237 241 235 234 239 231 235 233 230 233 236 238 241 250 262 279 297 304 310 308 307 307 307 305 301 299 296 298 297 308 307 316 321 314 317 306 338 15 208 215